Карточка аэропорта UNEE

Внимание!
Информация на этой странице в стадии наполнения.
Если вы не увидели какой-то информации, или заметили неточность - пожалуйста сообщите нам!
Спасибо!
Команда RU-STAFF
Название аэропортаКемерово
Название аэропорта (англ.)Kemerovo
Превышение873 ft. (266.1 m.)
Координаты55°16.2', 86°6.6'
Высота перехода500m
Эшелон переходаQFE>=760mm:FL030; QFE<=759=>733mm:FL040; QFE<=732mm:FL050
Коды ответчика5260-5267
Зона ОрВДНовосибирск РПИ (UNNT)
Данные METARUNEE 260300Z 18002MPS 130V240 9999 BKN010 09/07 Q1012 R23/CLRD60 NOSIG RMK QFE736
Проноз погоды (TAF)UNEE 260200Z 2603/2703 12003G08MPS 8000 -SHRA BKN040CB TX17/2609Z TN10/2623Z TEMPO 2603/2606 BKN007 BKN016CB TEMPO 2609/2615 17006G12MPS BECMG 2615/2618 20008G18MPS TEMPO 2615/2703 BKN011CB
NOTAMshow/hide NOTAM
AWOS   TABLE

Информация о ВПП

ВПП Длина ВПП (м.) Покрытие Курс ВПП Частота ILS
053200Цементобетон46 
233200Цементобетон226109.1

Диспетчерские позиции

Позывной Наименование органа УВД Частота
UNEE_APPКемерово-Подход125.5
UNEE_TWRКемерово-Старт118.3



Спутниковое изображение